Theta_e
306 306 307 309 310 313 314 316 317 318 318 317 317 316 316 315 314 314 313 313 313 313
302 302 302 304 307 309 312 315 317 317 315 316 316 316 315 313 313 314 313 314 313 312
300 300 301 302 303 304 307 310 311 314 316 315 315 315 314 314 313 313 313 312 312 312
298 298 299 300 301 303 305 306 307 310 314 314 314 315 314 312 312 311 311 310 310 310
297 297 297 298 299 302 302 304 305 307 310 312 313 313 313 310 310 309 308 308 308 308
296 297 296 297 298 300 301 302 303 305 307 309 312 310 309 309 309 308 308 307 307 306
296 296 296 298 298 298 301 302 302 304 306 309 309 308 308 307 306 307 307 307 306 305
297 297 297 298 298 299 302 304 306 307 308 308 307 306 306 305 306 306 305 306 306 305
297 297 298 299 300 301 302 302 302 302 302 301 303 302 303 305 304 305 304 305 304 303
297 298 298 299 300 300 300 300 300 300 301 301 301 300 300 302 304 303 302 303 301 301
297 297 299 299 299 299 299 300 299 299 299 300 300 300 299 301 304 304 302 301 300 300
297 297 298 297 298 299 299 298 298 298 298 298 298 298 299 300 302 302 300 301 302 302
299 298 298 297 297 297 297 297 298 297 298 299 297 297 297 300 300 299 299 300 300 298
298 298 297 297 297 296 296 297 297 296 297 297 297 296 296 297 299 298 298 298 298 299
Wind_Speed
10 7 7 8 8 7 7 6 5 6 5 6 5 5 5 4 4 5 5 6 6 4
6 7 9 11 9 7 8 8 8 6 6 6 5 5 4 4 4 3 3 4 4 4
6 8 8 8 10 10 9 9 9 8 6 5 4 4 3 4 5 4 4 4 5 6
13 14 12 10 9 8 8 9 10 9 7 5 6 5 5 5 8 6 5 4 6 8
15 13 12 12 12 10 9 8 8 9 9 7 6 5 5 4 4 3 4 6 6 10
13 10 11 12 12 11 11 10 10 9 9 7 4 1 1 1 3 4 7 5 6 7
12 12 11 11 11 10 10 10 9 9 9 6 1 2 3 3 4 5 6 4 6 4
11 10 10 10 10 9 9 7 7 8 5 3 1 3 5 3 6 7 5 4 4 2
10 10 10 10 9 7 7 5 6 6 6 5 4 7 9 8 7 5 4 5 2 4
9 9 9 9 8 6 6 5 5 6 7 7 7 10 10 10 5 5 4 3 5 6
8 9 9 7 7 8 5 7 6 7 7 7 6 9 8 7 4 1 10 10 6 3
8 8 8 8 7 6 5 5 5 6 7 7 8 13 12 8 9 10 10 6 6 5
8 5 6 7 8 7 5 6 5 8 9 14 10 17 17 13 9 10 6 5 3 3
9 8 8 7 7 7 7 8 8 9 8 10 11 11 14 13 8 5 3 2 3 3
Wind_Direction
354 343 335 340 337 326 313 297 289 273 255 233 222 216 214 222 199 192 205 208 211 211
322 334 327 324 325 324 322 316 306 283 258 267 266 247 233 247 239 227 238 244 250 256
317 333 319 312 312 312 312 320 321 312 292 277 275 276 268 277 279 260 269 270 268 266
330 327 319 312 303 295 302 310 314 310 303 284 273 264 271 258 263 254 271 287 287 287
317 312 312 312 307 306 304 299 298 300 296 289 278 261 257 269 285 288 294 293 305 295
306 299 300 303 304 309 307 303 296 288 285 286 285 36 111 264 291 287 251 259 279 300
305 307 301 302 300 301 299 299 287 281 273 259 118 8 311 282 262 264 267 279 273 267
306 307 302 299 293 290 290 322 333 349 22 63 220 251 246 251 275 265 267 246 261 244
309 308 308 309 309 303 304 329 350 358 346 346 319 308 307 280 258 263 267 271 166 62
314 316 319 317 323 337 355 357 1 359 352 339 333 326 320 307 285 274 260 136 84 53
332 332 337 348 2 359 1 6 7 357 349 346 337 333 319 311 290 99 89 78 89 102
329 332 340 350 342 341 357 12 8 13 10 18 19 28 35 49 77 84 82 74 54 27
357 338 360 11 23 20 17 19 20 38 31 34 36 28 35 53 76 77 62 52 50 358
19 32 28 30 26 25 27 36 41 45 40 34 28 31 38 45 64 79 77 27 336 314